Location: Grust
(42.8833°N, 0.0333°W)
Time: 14:41:46
(UTC+00:00)

FALCON 9 DEB - Pass Details

Date: 25 October 2020
Orbit: 379 x 394 km, 53.0° (Epoch: 24 November)

Event Time Altitude Azimuth Distance (km) Brightness Sun altitude
Rises 18:36:27 0° 245° (WSW) 2,289 8.0 -18.0°
Reaches altitude 10° 18:38:33 10° 251° (WSW) 1,431 6.8 -18.4°
Maximum altitude 18:41:41 50° 328° (NNW) 506 3.6 -18.9°
Enters shadow 18:42:17 43° 8° (N) 567 3.6 -19.0°
